Wind_Speed
22 24 26 27 28 29 29 27 26 23 21 20 18 18 18 17 15 14 14 14 11 8 6 5 6 11 14 16 19 24 26 27 30 34 39 41 42 41 41 41 41 40 41 40 41 41 39 36 35 35 34 34 33 32 30 28 27 28 29 30 30 29 27 27 27 26 27 27 28 29 29 29 29 29 29 29 29 28 28 28 28 28 28 28 29
24 26 27 28 28 29 29 30 30 29 28 27 25 24 22 20 19 19 19 18 16 15 13 11 10 7 6 8 13 20 23 26 29 32 36 38 40 42 42 42 41 40 42 42 42 42 41 40 39 38 37 36 35 34 33 31 30 29 30 31 31 31 31 31 31 30 30 30 31 30 29 29 30 30 30 30 30 29 29 29 29 29 28 28 28
27 28 28 28 29 30 31 31 32 31 30 30 29 28 27 25 24 23 22 21 20 19 17 15 14 13 10 7 7 12 17 21 25 28 31 34 38 41 41 41 41 42 42 43 44 44 43 43 42 40 39 39 37 36 36 35 34 33 31 32 33 33 32 32 34 34 33 32 31 31 31 30 29 30 31 30 30 30 30 30 30 29 28 28 29
28 28 29 29 30 32 33 33 33 33 33 33 32 31 31 30 29 27 26 24 23 21 19 18 16 13 10 8 4 5 9 15 19 22 25 28 31 35 38 41 42 42 43 43 45 45 45 44 43 41 41 41 40 38 39 38 37 36 35 34 35 35 35 35 36 36 36 36 34 31 29 27 28 32 35 33 31 32 32 32 31 30 29 29 30
26 28 29 29 29 31 32 33 34 35 36 36 36 35 33 31 29 29 28 27 27 26 23 21 19 16 13 10 5 4 5 9 12 15 17 20 23 27 32 36 39 41 42 42 44 45 45 45 43 41 41 41 42 41 41 40 39 39 38 37 36 36 37 38 38 39 39 39 37 33 26 25 31 34 34 33 33 34 33 32 32 31 30 30 30
24 25 28 28 28 29 31 33 34 35 35 36 36 35 35 33 31 29 29 28 28 28 28 26 23 20 19 16 12 9 7 4 2 2 6 8 13 19 25 29 33 37 39 41 43 44 45 44 43 42 42 42 42 43 42 42 42 42 41 38 37 37 37 38 40 41 41 40 40 39 32 31 35 34 31 31 33 34 34 33 33 32 31 31 31
24 23 26 28 28 29 30 32 33 34 34 35 35 35 34 34 33 32 30 29 29 28 28 29 28 26 23 21 18 16 13 12 11 7 4 3 5 12 18 21 24 28 33 37 40 43 44 43 42 41 42 43 43 44 43 44 44 43 43 41 38 38 40 41 41 41 42 42 42 42 39 37 35 33 32 31 31 34 36 35 35 34 34 33 32
24 23 25 27 28 28 28 30 31 33 34 35 36 36 36 35 33 33 32 31 30 29 28 28 28 28 27 24 21 20 18 16 14 11 9 7 6 8 12 16 19 20 22 27 32 37 41 43 43 42 41 42 44 45 45 45 44 44 44 44 41 41 42 42 42 42 43 43 43 43 42 41 38 36 34 31 31 34 37 38 37 36 35 36 35
24 23 24 26 27 28 27 28 30 32 34 35 36 37 36 36 35 34 34 33 31 30 29 28 27 27 27 27 25 22 21 19 17 15 13 11 9 8 9 12 16 19 19 19 22 27 33 38 42 44 44 44 45 45 46 46 45 44 45 46 45 45 44 44 44 44 44 43 43 43 44 44 41 37 34 32 31 32 33 38 40 38 38 39 37
24 23 23 24 25 26 27 29 31 33 34 34 35 37 37 37 37 36 35 35 33 32 30 29 28 27 26 27 27 26 24 21 20 18 16 15 13 11 10 10 12 15 18 19 19 22 26 31 37 42 45 46 46 46 47 48 47 46 46 47 47 47 47 47 46 46 45 44 44 43 45 46 43 40 39 37 35 33 33 35 37 39 41 41 39
23 23 24 24 24 24 25 28 31 33 35 35 35 36 37 37 38 37 35 35 34 33 33 32 30 28 27 26 26 27 26 25 24 22 20 18 16 15 13 12 10 11 14 17 19 21 24 27 31 36 41 45 47 47 48 50 49 47 46 46 48 48 48 49 49 47 46 46 46 45 45 47 47 46 47 46 43 41 38 35 35 36 38 38 38
21 21 22 24 25 25 25 27 29 31 34 35 35 36 36 36 36 36 36 35 34 33 33 33 33 32 30 28 26 26 26 26 26 25 24 22 20 19 18 16 15 13 13 14 16 19 22 24 25 29 34 41 45 48 48 48 48 47 47 48 48 49 49 49 49 48 48 47 47 47 46 47 48 48 48 48 47 46 43 40 37 35 36 36 34
22 22 21 23 25 26 27 26 26 29 31 33 33 34 35 35 34 34 35 34 34 33 33 32 32 33 33 32 30 28 26 25 25 25 25 24 23 22 21 20 19 18 16 15 15 15 17 19 21 23 27 32 37 43 47 48 48 47 48 50 49 49 50 51 51 49 49 49 48 48 47 48 48 47 47 46 46 46 44 42 38 35 34 33 32
19 20 20 21 23 24 26 26 25 27 29 30 30 30 32 33 33 34 34 33 32 32 32 32 31 31 33 33 33 31 29 27 25 25 26 26 26 24 22 20 21 21 20 19 18 18 18 18 19 20 22 25 28 34 41 47 49 49 48 48 50 51 51 52 53 51 50 50 49 49 49 49 49 48 48 47 46 46 45 43 40 36 33 31 31
16 17 18 19 20 22 25 24 24 25 27 29 29 28 28 29 29 31 32 32 32 31 31 31 31 30 31 32 33 33 32 29 27 26 26 26 26 26 25 22 21 21 21 22 22 21 21 21 21 20 21 23 25 28 34 40 45 49 50 49 50 52 53 54 54 53 52 51 51 50 50 50 49 48 48 48 49 48 48 46 44 40 36 32 31
15 16 17 17 18 20 23 23 23 25 27 28 28 27 27 27 26 27 28 29 30 29 30 30 31 31 31 31 31 31 31 31 30 29 28 28 28 27 26 25 24 23 23 23 23 23 23 23 23 23 22 22 23 25 28 33 38 42 48 52 53 54 54 55 55 55 54 54 52 52 51 51 51 49 49 49 49 49 49 49 48 46 42 37 33
16 17 17 19 20 20 21 22 23 25 28 29 29 27 26 25 24 24 24 26 27 27 27 28 29 30 31 32 31 28 28 29 31 33 33 33 32 29 27 25 25 26 26 25 25 25 24 24 24 24 24 23 24 23 24 27 32 36 40 47 53 55 54 54 55 55 56 55 54 53 53 53 52 50 49 49 49 50 51 51 50 50 48 44 40
18 19 19 21 21 21 22 23 24 25 27 30 30 26 23 23 22 21 21 22 23 25 26 26 26 27 30 32 32 30 29 29 30 32 35 36 36 35 32 28 27 28 29 30 28 27 26 25 25 25 24 24 24 24 24 23 26 31 36 39 45 51 54 54 54 54 55 55 54 54 54 54 53 51 51 50 49 49 51 52 52 51 50 50 48
21 21 21 22 23 24 26 27 28 27 26 29 28 24 21 21 20 20 20 21 22 24 25 26 26 27 28 29 30 30 31 31 31 31 32 35 38 39 38 35 33 32 32 32 32 31 28 26 26 26 26 25 25 25 25 24 23 25 31 35 39 45 51 54 54 54 55 55 55 55 55 55 54 53 52 51 50 50 50 52 53 53 52 52 52
23 23 23 25 26 29 31 32 32 29 27 26 23 19 18 19 19 20 21 22 23 24 25 26 26 27 27 29 29 28 29 31 33 34 33 34 36 38 39 40 40 39 38 35 33 32 32 29 27 27 27 27 26 25 25 25 24 23 26 30 35 40 47 52 53 53 54 54 55 55 56 57 56 54 53 53 52 52 51 52 53 54 54 54 54
23 24 25 27 29 32 34 32 30 26 23 21 19 18 19 21 23 24 25 26 27 28 28 27 26 26 26 27 28 27 28 31 33 34 35 36 36 36 38 40 42 43 43 41 36 33 32 32 30 27 26 27 27 27 26 25 25 26 26 27 29 35 42 47 50 52 52 53 55 55 55 56 55 53 53 54 53 52 52 53 53 53 54 54 55
25 26 28 31 34 33 31 27 24 22 20 20 21 22 25 26 28 29 31 32 33 33 31 29 28 27 27 26 27 28 29 31 32 33 35 37 39 39 39 40 42 43 44 44 42 37 32 31 32 30 27 26 26 27 27 26 26 27 27 27 27 29 35 41 46 49 51 52 54 54 55 55 54 53 53 53 53 53 53 53 54 54 53 53 54
28 31 34 35 33 29 26 26 25 25 25 26 26 27 28 29 30 31 32 33 32 31 31 30 29 28 27 26 26 28 29 31 32 33 34 36 39 41 41 41 42 43 44 44 44 42 36 31 31 31 30 28 27 27 26 27 27 27 28 28 27 27 30 33 39 44 47 49 51 53 55 55 53 52 52 52 52 52 52 53 54 54 54 53 53
31 34 36 34 28 27 29 30 30 30 29 29 29 28 28 28 28 29 30 30 30 29 29 27 27 27 28 28 29 29 30 30 31 33 34 36 38 40 42 43 43 44 45 45 44 43 40 36 32 31 31 31 29 28 27 27 27 28 28 28 27 27 28 31 33 37 40 44 47 50 52 54 52 51 52 53 52 52 52 53 54 53 53 53 53
34 36 34 28 27 30 32 32 32 32 31 29 27 26 26 26 27 28 28 29 30 31 28 25 24 26 27 29 31 31 31 31 32 33 33 35 37 39 41 43 45 45 46 46 46 44 42 39 36 32 32 32 32 30 29 28 28 28 29 29 28 27 28 30 32 33 35 37 41 45 48 50 51 52 52 53 53 54 53 53 54 54 53 53 52
35 35 29 26 30 32 32 33 33 31 29 28 27 27 28 28 29 29 29 28 29 30 28 27 27 28 29 30 32 32 33 33 34 35 34 34 37 39 42 44 45 47 47 47 48 45 41 39 38 36 33 32 33 32 31 30 29 29 29 30 30 29 28 29 31 32 33 33 35 39 42 45 48 51 52 53 54 54 54 54 54 55 54 52 51
36 31 26 29 33 32 33 33 31 28 27 28 30 30 31 31 32 32 32 31 31 31 32 32 33 34 35 35 34 34 35 37 39 38 36 36 38 42 45 46 45 46 47 47 48 45 40 37 38 39 37 33 32 33 33 32 30 30 30 31 32 31 30 29 29 31 32 32 33 35 37 40 43 47 50 52 53 54 54 54 55 55 54 53 51
32 26 26 32 33 34 36 34 30 28 29 30 31 31 32 34 35 34 34 34 33 33 34 35 36 36 37 37 36 36 37 39 41 41 40 41 44 48 48 45 44 45 45 46 46 42 38 37 37 39 39 36 31 31 33 32 31 30 30 31 33 34 33 32 30 29 29 31 32 33 35 37 39 42 45 48 51 53 53 54 55 55 55 54 53
27 26 31 34 35 36 37 35 31 31 31 31 32 34 36 36 35 34 34 34 33 34 34 34 34 35 36 35 35 35 37 38 40 42 45 46 48 50 47 42 41 42 42 41 40 38 38 39 39 39 40 38 32 30 31 31 31 30 29 30 31 34 36 36 34 31 29 29 31 33 34 35 36 38 40 43 46 49 51 52 53 54 54 54 53
26 30 34 36 38 40 39 36 33 31 31 32 34 37 37 35 35 35 36 36 36 35 33 31 31 32 31 31 32 34 35 37 39 42 45 47 50 50 44 40 41 40 38 37 36 37 40 42 43 42 41 38 34 30 29 29 29 29 29 29 30 32 35 37 38 37 34 32 31 31 33 35 35 36 37 38 40 43 47 49 51 53 53 53 53
29 34 37 40 41 41 39 36 31 30 31 34 36 37 36 36 38 39 39 39 38 36 36 35 35 35 36 37 38 39 39 40 41 43 46 48 49 46 41 40 40 38 37 37 37 38 41 44 46 46 41 37 34 31 27 27 27 27 26 26 28 30 33 35 38 39 39 38 35 33 32 33 34 35 36 37 37 38 41 44 47 50 52 53 53
33 37 40 41 40 39 38 33 30 31 34 35 36 37 38 39 40 40 40 39 37 37 36 37 38 41 42 41 40 40 42 42 43 43 44 44 42 41 40 39 37 35 34 35 36 39 42 45 48 45 39 35 33 29 25 23 24 23 23 24 26 28 30 32 35 38 40 41 40 38 36 35 34 35 36 36 37 37 38 39 41 44 48 51 53
36 38 39 38 38 39 36 32 31 34 36 37 38 39 38 38 39 39 39 37 36 36 36 38 40 40 38 38 40 41 40 38 36 35 34 32 31 32 33 32 31 31 32 35 37 41 44 45 43 38 34 32 31 28 23 21 21 22 22 23 24 26 28 30 32 33 35 37 39 41 41 39 38 37 37 37 37 37 38 38 39 41 44 47 50
36 37 38 38 39 37 33 32 35 38 39 40 40 37 35 36 36 37 35 33 34 36 38 40 39 37 38 40 39 36 33 31 32 32 31 29 28 28 28 29 31 34 37 39 42 43 43 40 35 33 31 31 29 25 21 19 20 21 22 22 23 25 27 29 30 30 30 31 34 36 39 41 41 40 39 39 39 39 38 38 38 40 41 44 47
35 38 38 38 36 34 35 37 40 42 42 41 38 35 34 35 36 35 34 35 38 39 39 38 37 38 39 36 32 30 31 34 36 36 34 33 31 31 31 32 34 37 39 42 43 42 39 35 32 31 30 29 26 22 18 19 21 21 20 21 22 24 25 27 28 28 28 29 29 30 32 35 37 39 40 40 40 39 39 38 38 39 40 42 45
37 37 37 35 34 36 41 44 45 44 41 37 35 35 36 37 37 37 38 40 40 39 38 38 38 37 33 30 31 33 35 34 34 33 33 32 32 31 30 30 33 36 40 43 43 41 38 34 31 29 27 26 22 16 14 19 21 19 19 20 22 23 24 26 27 28 28 28 27 28 29 30 31 32 34 35 35 35 36 37 38 39 40 41 43
37 36 34 33 36 42 45 44 42 38 35 35 36 37 39 41 42 42 41 40 39 38 38 36 33 31 30 31 33 33 30 29 28 28 29 31 33 35 35 35 37 39 41 42 42 39 35 31 29 26 24 22 17 13 15 19 20 18 19 20 22 23 24 25 26 27 27 26 26 27 29 29 29 30 30 30 29 30 31 34 36 39 40 41 42
35 34 33 36 41 44 41 37 35 35 36 38 39 41 43 44 42 40 38 37 38 37 35 31 29 30 31 31 30 29 29 30 31 31 33 36 38 39 38 37 36 38 38 38 36 33 30 28 26 25 22 20 19 20 21 22 20 19 20 21 22 22 23 24 26 26 26 26 26 25 25 25 26 27 27 27 28 29 32 34 35 37 38 40 42
33 31 35 41 44 40 35 33 36 39 41 42 43 43 42 39 36 34 35 37 37 34 30 29 30 30 29 28 29 31 34 36 37 38 38 38 37 36 35 33 32 32 32 31 30 29 28 26 25 23 20 18 20 22 20 18 17 17 18 19 20 21 21 22 23 23 24 25 26 25 24 24 24 25 25 25 26 27 30 33 34 35 37 39 40
34 35 39 43 40 35 34 36 39 41 43 44 43 39 34 31 33 36 37 36 32 28 28 29 28 27 28 31 34 35 36 36 36 35 34 33 31 30 30 29 29 28 28 27 27 26 25 23 20 17 15 14 16 16 14 12 14 15 16 17 18 19 20 20 20 21 22 24 24 23 23 23 23 23 24 24 25 25 26 29 30 32 36 38 38
35 39 43 42 37 33 35 38 41 44 45 42 35 30 29 33 37 38 36 31 27 26 28 27 27 29 32 34 35 34 33 31 30 30 30 28 27 26 25 25 25 24 24 23 22 20 19 18 15 14 14 13 14 15 14 12 12 14 14 15 16 17 17 18 19 20 22 23 22 20 20 20 21 22 23 23 23 23 24 26 28 32 35 35 34
37 41 43 40 35 34 36 40 44 45 42 35 29 29 33 37 38 35 30 27 26 26 26 27 30 33 35 34 32 30 28 28 27 26 25 24 23 22 22 22 21 20 20 19 18 17 16 16 15 15 15 14 14 15 14 14 14 14 13 13 14 15 15 15 17 19 20 20 19 18 18 18 19 20 20 20 20 21 22 24 27 29 30 30 30
39 42 41 36 34 36 40 44 45 42 36 30 30 34 37 37 35 31 27 26 26 26 27 31 35 36 35 32 31 29 27 25 23 22 22 23 23 22 20 19 18 19 19 18 18 18 17 17 17 15 14 15 15 12 12 15 16 14 12 12 13 13 12 14 17 18 18 18 17 17 17 17 16 17 17 17 18 19 20 22 24 25 25 26 28
40 42 39 34 34 39 43 45 43 38 32 29 32 36 37 34 31 28 26 27 28 29 32 36 37 36 34 32 31 29 26 23 21 21 22 23 22 21 20 19 18 19 18 18 19 19 17 16 17 15 14 15 12 10 12 15 15 13 11 11 11 11 11 15 17 16 15 16 15 14 15 15 16 16 16 16 16 17 18 19 21 22 23 24 26
40 41 37 34 36 40 43 43 40 35 31 31 33 36 35 32 30 27 26 28 31 32 34 37 38 36 34 33 31 28 24 22 21 21 22 22 21 20 19 18 17 16 16 17 18 18 18 18 18 17 15 14 11 11 13 14 13 12 11 11 11 12 13 14 14 11 10 12 12 11 12 14 15 15 15 16 15 15 16 17 18 20 22 24 25
41 40 36 34 37 41 41 39 37 34 32 32 34 35 33 30 28 27 27 29 31 33 36 38 38 36 34 32 29 26 24 23 22 20 20 19 19 18 18 17 16 15 16 17 17 17 18 19 19 18 17 16 14 13 12 11 12 13 12 11 11 11 10 10 10 9 9 10 10 9 11 13 15 15 16 16 15 15 16 16 17 19 22 24 23
41 38 35 35 38 41 39 36 35 35 32 32 34 34 29 27 27 28 27 29 31 33 37 39 39 36 33 30 28 26 24 24 22 20 19 18 17 16 16 16 16 16 16 15 14 15 17 17 16 15 14 13 13 13 12 10 12 14 14 12 11 9 7 7 8 8 9 10 9 9 10 11 14 16 15 14 14 14 15 15 16 18 20 21 19
41 37 35 37 40 41 37 34 36 35 31 31 34 33 26 24 27 28 28 29 31 34 38 39 37 34 31 28 27 25 24 23 23 21 20 19 17 15 16 16 16 15 15 15 16 17 18 18 18 17 16 15 14 14 14 13 12 12 14 14 14 11 7 6 7 9 10 11 10 10 9 10 11 14 15 14 13 13 14 14 15 16 17 17 15
39 37 36 38 41 40 36 34 36 33 29 31 35 31 24 24 28 29 28 30 33 36 37 36 33 31 29 28 26 24 23 23 23 21 20 18 17 16 17 17 15 13 13 15 17 18 19 20 20 20 19 19 18 16 14 13 12 12 13 14 15 14 9 6 8 10 11 12 12 12 11 10 10 12 14 14 13 12 12 13 14 15 15 15 14
37 37 38 40 41 39 35 35 35 30 28 33 35 29 22 24 28 29 28 31 34 36 35 32 30 29 29 27 25 24 23 22 22 22 21 20 17 16 16 17 15 13 11 12 14 15 17 18 19 19 18 17 16 14 13 12 12 12 11 10 12 14 13 7 8 11 12 13 13 13 12 12 11 12 13 14 14 13 13 14 15 15 14 14 14
37 37 39 41 41 38 35 34 32 28 30 34 33 25 22 26 28 28 28 30 33 35 33 31 30 29 27 26 25 24 23 22 21 22 23 23 22 19 16 15 14 14 12 10 10 12 15 14 13 13 15 15 14 13 12 11 9 7 7 8 10 12 13 10 7 9 13 13 12 12 12 11 11 12 13 14 15 15 15 16 17 17 15 15 14
Wind_Direction
47 47 46 45 45 45 44 43 42 40 34 28 20 11 6 1 355 352 353 352 351 347 342 322 259 234 229 229 234 240 245 248 248 245 241 236 232 232 235 232 226 225 227 228 230 231 231 231 230 229 228 227 226 225 225 226 227 226 227 227 228 226 222 220 221 220 215 210 208 211 214 213 212 211 211 212 213 213 215 215 217 221 220 217 216
45 43 41 41 41 42 42 42 41 40 39 37 34 29 22 13 7 4 358 352 354 359 1 3 359 343 295 255 236 234 240 244 244 245 244 241 237 237 236 232 228 228 230 230 230 231 232 232 231 231 230 229 228 227 227 227 226 225 225 225 226 228 227 222 219 217 215 215 212 209 210 213 216 216 214 214 215 216 218 218 220 223 225 225 223
37 34 33 33 34 36 37 38 38 37 37 37 36 34 30 27 21 15 6 358 352 351 353 359 4 359 342 317 264 235 231 234 235 236 238 240 241 240 238 233 230 230 231 231 230 230 232 233 233 232 231 230 228 227 227 226 226 224 225 226 224 223 225 225 224 224 220 216 213 209 210 211 215 219 218 218 218 219 221 222 222 224 227 229 230
31 29 28 27 28 30 30 31 32 33 33 32 32 31 30 29 27 23 17 11 4 355 348 347 347 348 347 342 310 234 213 218 226 229 230 233 238 240 238 236 234 233 234 233 230 230 231 232 231 231 231 231 230 229 228 227 226 225 224 225 224 220 219 222 225 228 226 218 209 206 209 210 214 219 218 218 220 221 223 224 225 226 226 229 232
28 26 24 25 26 26 26 26 27 29 29 29 28 28 27 26 26 25 23 18 14 9 2 350 336 326 327 330 305 251 215 207 211 218 222 228 235 238 239 238 236 234 233 233 233 232 232 231 230 231 231 231 232 231 231 230 229 227 224 224 226 226 224 222 221 222 227 227 220 211 205 208 216 220 218 217 219 222 224 226 227 228 228 229 231
26 22 19 21 23 23 23 23 24 24 24 25 26 26 25 23 23 23 23 21 18 14 10 5 356 343 336 337 337 336 335 341 357 224 224 231 236 238 240 242 242 240 236 234 233 232 232 231 230 232 232 230 231 232 232 230 229 228 227 226 228 230 230 225 221 221 223 227 229 227 224 224 223 219 213 214 218 222 225 228 229 230 231 231 231
23 19 16 17 19 20 20 19 19 19 19 20 22 23 23 22 20 20 20 20 19 16 12 9 9 6 360 356 352 349 346 346 354 352 319 289 253 237 237 240 244 247 246 242 238 234 232 231 229 231 232 231 230 231 231 230 229 229 229 229 229 229 229 227 226 224 222 222 226 229 232 234 233 226 218 214 213 217 222 225 228 229 231 231 231
21 17 15 16 15 16 16 16 16 15 16 17 18 19 20 21 19 17 17 18 17 16 14 11 10 10 8 7 2 354 349 341 335 331 317 300 277 245 235 234 236 241 247 250 249 245 240 236 233 231 232 231 231 232 232 231 230 230 229 230 230 229 229 231 231 229 227 227 225 224 226 230 232 233 233 229 222 218 218 221 225 228 230 232 232
21 17 14 13 11 11 10 10 11 11 12 13 14 14 15 17 18 17 15 15 15 14 14 13 11 9 6 6 6 2 357 348 337 327 313 299 286 264 244 238 236 235 237 242 250 254 252 247 242 238 236 234 233 232 232 231 231 232 231 229 228 229 230 232 233 233 234 234 230 226 224 225 228 231 234 234 231 226 221 221 223 224 228 231 232
24 21 17 12 8 6 4 4 5 6 6 7 8 9 10 12 13 15 14 12 11 10 10 10 9 8 5 3 2 1 360 356 348 337 324 311 299 285 265 250 242 239 237 236 238 245 253 255 250 244 240 238 235 233 232 233 234 234 232 231 230 231 231 230 232 234 236 237 235 232 226 222 222 224 226 227 228 228 228 229 228 226 229 232 232
23 24 21 16 10 2 358 359 1 1 0 0 1 3 4 5 6 9 10 10 10 8 6 6 5 4 4 2 359 358 357 355 353 349 342 332 319 307 294 278 264 252 243 239 238 239 243 250 253 248 242 238 237 236 235 237 238 236 233 231 232 232 232 231 231 232 234 235 235 235 232 229 227 226 227 227 225 225 226 229 231 230 233 235 235
15 16 16 15 12 5 357 353 353 355 355 355 354 355 356 357 359 1 2 4 5 5 5 3 2 360 359 358 357 355 354 352 353 352 350 346 337 326 317 304 291 277 260 247 243 243 241 243 247 251 248 244 243 242 239 239 238 237 234 231 232 233 232 232 232 232 233 234 235 236 237 237 235 233 233 232 231 230 229 229 230 229 230 232 234
10 8 6 6 7 5 359 351 346 347 348 348 347 347 349 349 351 354 355 356 357 358 360 0 360 359 356 354 353 352 350 349 349 348 347 346 342 337 331 321 309 298 285 271 259 252 249 247 246 248 250 250 250 248 245 240 237 235 234 234 233 232 231 231 233 234 235 236 237 239 239 239 238 237 236 236 236 235 233 232 231 230 231 232 231
11 9 6 1 358 358 356 350 344 342 342 341 340 340 342 343 346 348 348 349 349 349 350 352 355 356 355 353 350 348 347 347 348 347 346 344 341 339 335 328 318 310 302 291 279 266 259 256 254 251 250 251 252 252 249 245 240 236 235 235 234 233 231 230 233 234 236 237 238 240 241 241 240 239 238 237 237 236 234 233 231 229 230 232 231
12 11 8 3 358 354 351 345 340 338 337 334 332 330 332 335 338 342 344 344 345 345 343 343 346 348 350 350 348 346 344 344 346 347 347 344 341 338 334 330 322 314 308 300 292 282 273 265 261 257 254 252 252 253 253 251 247 240 235 234 235 234 233 233 235 236 236 236 237 238 240 242 242 240 239 238 238 238 238 238 236 230 225 225 228
2 356 354 355 353 351 349 343 335 332 331 329 325 321 323 326 330 334 338 340 342 343 343 340 339 340 342 344 344 343 341 341 343 344 344 342 339 336 332 329 326 319 311 303 297 292 286 278 270 264 259 254 251 252 253 255 254 248 240 236 236 236 236 237 239 238 237 236 235 236 238 240 242 242 241 239 238 238 239 240 239 237 231 224 223
343 339 337 339 339 340 346 347 340 333 328 325 319 314 315 321 327 331 333 336 337 338 340 340 338 337 336 337 339 339 338 337 338 339 339 338 335 333 330 327 324 322 317 310 302 295 290 286 280 273 266 260 254 251 251 254 258 257 249 243 241 241 240 241 240 239 238 237 235 235 236 237 239 241 241 241 239 238 237 238 238 240 238 233 228
332 331 333 336 337 337 342 345 342 336 329 323 315 309 313 322 326 329 330 333 334 333 333 333 335 335 333 333 334 335 335 333 333 334 334 334 332 331 330 326 323 322 320 316 309 301 293 288 284 279 275 269 262 255 252 252 256 259 257 251 248 244 242 241 241 239 238 237 235 235 236 236 237 238 240 241 241 239 238 237 237 238 239 238 237
332 335 338 342 344 342 341 339 336 333 329 324 315 307 317 328 328 329 331 331 331 330 328 326 326 328 329 328 329 330 331 331 331 332 332 331 330 330 329 328 324 323 321 318 313 309 301 292 285 281 277 273 269 264 258 254 254 258 259 256 252 246 241 241 241 240 240 239 237 236 236 236 236 235 236 238 240 240 239 238 236 236 236 238 240
339 340 342 344 344 341 337 333 331 330 328 326 322 318 327 334 332 332 332 329 327 325 322 320 319 319 320 321 322 324 326 326 327 329 329 329 329 329 329 328 325 325 324 321 316 312 308 300 290 282 278 275 271 267 264 259 256 256 258 258 256 250 244 242 242 242 241 240 239 238 237 238 236 233 233 235 237 239 240 239 237 236 236 237 238
341 342 341 340 337 334 332 330 330 332 331 329 329 328 329 328 328 328 325 323 321 318 314 313 313 313 312 313 315 316 318 319 320 323 325 326 327 328 328 326 325 325 324 323 320 314 310 306 298 287 279 275 271 267 265 263 260 256 255 257 259 256 249 246 246 244 243 241 239 239 238 238 236 233 233 235 236 237 239 240 239 237 237 237 237
340 339 337 334 332 332 335 338 338 337 336 331 325 322 320 318 319 319 318 317 314 310 306 304 304 305 304 304 305 307 310 313 315 317 320 321 322 324 324 323 322 322 322 322 322 318 312 307 303 295 284 275 271 267 263 262 260 258 256 256 259 260 256 252 249 247 245 243 240 239 238 237 236 235 234 234 234 235 235 237 237 237 237 237 237
337 335 334 332 333 336 341 343 340 336 333 329 325 323 319 316 315 315 315 314 311 307 301 298 297 297 297 296 296 298 303 308 311 313 315 315 317 319 319 319 318 317 317 318 319 319 315 309 302 298 292 282 273 268 263 259 257 256 256 256 258 261 260 257 254 251 249 246 242 240 239 238 236 235 234 232 232 232 232 234 235 236 236 237 237
332 331 331 331 334 339 340 339 336 333 331 328 327 326 324 322 321 319 316 313 310 307 302 299 296 293 290 290 290 293 299 304 307 309 311 311 312 314 314 314 313 312 311 312 314 315 313 310 304 298 294 289 280 272 265 259 255 254 254 254 255 259 261 259 256 255 254 251 247 244 243 240 237 234 233 232 231 231 231 232 233 234 235 236 237
329 329 329 331 337 339 338 337 335 333 331 329 326 324 324 324 325 324 321 317 314 310 305 301 298 293 289 287 287 289 295 300 302 305 308 308 308 309 309 308 307 305 305 306 307 309 308 307 306 302 296 291 285 278 269 261 255 251 250 251 252 254 258 259 257 256 256 255 253 251 248 245 240 236 235 233 232 231 230 230 231 232 232 233 234
328 327 328 333 336 335 334 333 332 329 326 323 320 319 320 321 322 323 325 323 319 314 307 302 298 296 293 290 287 288 292 295 297 301 304 305 305 304 304 303 301 300 300 300 301 304 304 303 304 304 300 293 286 281 274 266 259 253 249 248 248 249 252 256 258 257 256 256 256 255 254 250 245 241 239 237 234 232 230 230 230 231 231 231 231
325 324 328 334 334 332 332 330 327 323 318 315 314 316 319 321 322 323 324 323 320 315 311 306 303 302 299 295 289 287 288 290 292 295 298 298 300 302 301 299 297 295 294 295 297 300 300 300 302 302 302 298 289 281 277 271 264 258 252 247 245 246 247 249 253 256 258 257 256 255 255 254 251 247 244 242 239 236 233 232 232 232 231 230 229
323 327 333 334 333 331 329 327 323 318 313 311 312 314 319 321 322 322 323 323 321 317 313 309 306 305 302 296 290 287 287 288 290 291 291 291 295 299 300 296 293 293 292 292 295 297 296 298 301 301 302 301 292 281 277 274 269 263 257 251 246 244 244 244 246 249 254 257 258 256 255 254 253 251 249 247 244 241 239 236 235 234 232 231 230
326 334 335 333 330 328 326 324 319 314 311 311 313 317 320 320 320 320 321 321 320 316 312 310 307 304 300 294 289 286 285 285 285 286 287 290 294 298 299 295 292 291 291 291 292 293 293 297 301 302 301 300 293 283 277 275 271 267 262 256 250 245 244 244 243 243 245 249 254 256 256 255 254 253 252 250 247 245 241 239 238 236 233 231 230
333 335 333 332 329 325 323 320 314 310 312 316 319 320 320 318 316 315 315 314 313 310 307 305 304 301 297 292 288 287 288 288 288 288 290 293 296 297 297 293 289 287 286 287 288 290 292 296 301 303 300 296 291 285 278 274 271 270 267 262 256 249 245 243 244 243 242 242 244 249 253 255 256 255 254 252 250 247 245 242 241 238 234 231 229
334 334 333 331 326 323 321 316 312 312 318 322 322 320 317 314 312 311 312 312 311 307 303 301 301 301 300 299 298 299 299 298 297 296 295 296 296 296 293 289 283 278 279 282 284 287 290 295 300 301 298 293 289 285 280 273 268 268 268 265 261 256 250 245 244 244 243 242 241 242 245 249 252 254 255 254 253 251 249 247 245 243 239 236 232
333 333 332 329 325 322 320 315 312 317 321 322 321 318 314 312 311 311 312 312 310 307 304 302 302 303 303 303 303 303 302 301 300 299 298 297 295 292 287 280 272 269 273 277 281 285 290 295 298 297 293 290 287 284 279 272 267 267 268 267 264 262 258 252 247 244 244 244 243 243 243 244 246 248 251 253 254 254 252 250 249 247 245 242 239
332 331 327 324 322 320 317 314 316 320 321 320 319 316 312 310 311 312 313 311 307 307 306 306 307 306 304 302 303 303 303 303 303 303 303 302 297 288 281 275 272 276 281 284 288 292 295 296 295 292 289 287 286 283 277 269 266 265 265 265 264 263 261 258 255 250 246 245 244 244 244 244 245 246 248 249 251 253 254 253 252 250 248 246 243
327 325 323 321 319 318 317 318 320 321 320 319 317 313 311 312 315 314 312 309 309 310 311 312 311 307 304 303 304 305 305 304 305 306 305 306 303 296 291 290 291 293 294 296 297 298 297 295 292 290 289 286 283 282 278 273 270 267 265 266 265 264 262 259 258 257 255 251 247 245 245 245 245 245 246 247 248 249 251 253 254 253 251 249 247
323 322 322 320 320 321 322 321 320 319 318 317 315 313 314 316 315 312 311 312 314 314 313 312 309 306 308 309 308 307 306 305 305 306 305 304 305 304 302 302 300 298 298 298 299 299 297 295 293 291 291 287 282 281 280 279 278 275 273 270 265 263 263 261 258 257 258 257 254 250 248 246 246 245 245 246 248 249 249 250 250 251 250 249 248
321 321 320 318 319 321 321 319 318 317 316 315 316 317 317 316 314 312 312 313 314 312 310 309 309 311 313 312 308 307 307 306 305 305 304 304 305 304 303 300 296 295 295 295 297 298 298 296 293 292 291 288 283 282 285 283 279 276 274 271 264 261 260 260 259 257 256 257 257 255 253 250 248 247 246 246 248 250 250 249 248 248 248 248 247
320 319 316 315 317 319 318 317 315 315 316 319 320 319 317 315 313 312 312 311 311 310 311 312 314 316 314 310 310 311 312 311 307 304 302 301 301 301 299 295 292 291 292 293 295 296 295 293 293 292 292 291 291 294 291 283 277 277 277 273 266 261 259 259 259 258 257 258 258 258 258 257 253 249 246 246 248 250 251 249 248 246 246 246 246
319 317 315 316 318 319 317 315 315 316 319 320 319 317 316 314 313 312 311 310 311 312 315 317 318 316 314 313 314 313 312 310 306 301 300 299 300 299 297 294 291 291 291 293 294 294 293 292 292 290 289 290 290 285 276 269 269 275 277 273 269 264 260 260 260 259 258 258 257 258 260 261 261 257 251 247 246 247 248 249 248 247 245 245 245
317 316 317 320 320 319 316 314 316 318 319 318 317 316 315 314 313 314 313 313 314 316 319 320 318 316 314 312 311 309 308 307 304 301 301 300 299 298 297 295 293 292 293 293 292 292 292 291 290 289 288 287 284 278 270 266 271 277 277 275 272 267 264 265 265 266 265 261 257 255 253 253 256 257 254 251 248 245 245 247 248 247 246 245 244
316 318 321 322 321 317 314 315 317 318 318 318 318 317 315 313 314 315 315 316 317 319 321 319 315 311 309 309 310 310 308 307 305 304 303 301 300 299 297 297 296 294 293 292 292 293 293 292 294 297 300 301 301 300 294 282 278 278 277 275 272 269 269 270 270 270 270 268 265 260 255 253 254 254 252 250 248 244 243 245 246 245 245 247 246
317 320 323 323 319 314 312 315 318 318 319 321 321 317 313 313 314 315 316 318 321 321 319 314 309 307 310 312 312 311 310 310 310 308 305 303 303 302 302 302 301 298 296 295 296 299 300 303 310 315 318 320 319 317 313 302 290 284 279 273 271 270 269 270 272 274 274 274 273 269 262 257 255 252 248 245 243 241 241 244 245 245 246 248 247
317 321 323 321 316 311 313 316 319 319 321 323 320 313 313 315 316 317 319 322 323 320 313 308 308 310 312 314 315 315 315 315 314 311 309 308 309 309 309 307 305 305 305 305 308 313 314 316 319 322 324 321 311 304 304 300 297 292 283 272 269 268 268 273 279 279 277 276 274 268 261 254 247 242 239 236 236 238 241 244 246 246 246 246 245
319 322 323 319 312 310 314 318 319 321 323 322 316 313 316 318 318 319 322 322 318 312 308 309 312 313 313 316 320 321 320 318 317 317 317 316 316 316 313 312 313 313 314 314 316 318 317 315 317 319 315 306 300 300 298 294 295 296 289 276 270 270 275 277 275 275 275 275 271 263 255 247 239 234 232 231 233 235 237 240 240 239 237 239 242
319 321 321 315 310 312 317 319 319 322 323 319 314 315 318 320 320 321 323 320 313 308 308 312 315 316 317 320 323 323 321 320 322 323 322 319 319 318 315 314 313 310 311 315 317 316 315 315 315 312 304 298 300 303 296 293 297 299 293 283 274 273 274 266 261 265 271 272 269 263 250 238 232 230 231 232 232 232 232 232 232 229 229 235 238
319 321 318 312 311 315 319 319 319 323 322 316 315 318 320 320 321 324 323 317 310 308 311 315 318 320 321 322 323 322 321 323 326 325 321 318 318 318 316 314 311 306 307 309 307 304 303 301 298 296 294 294 293 290 289 295 300 299 298 293 282 277 275 265 257 256 263 266 267 263 247 232 225 225 229 232 234 233 230 227 226 224 227 233 236
320 320 316 312 313 317 319 318 319 322 319 315 317 321 322 322 324 326 324 315 308 308 312 316 320 322 323 323 323 322 323 326 327 324 320 318 319 319 317 317 314 309 304 300 296 296 296 293 289 288 289 288 290 295 302 306 303 300 303 303 293 288 283 270 257 250 254 262 266 261 248 235 227 228 232 236 239 238 228 222 223 225 227 233 237
320 318 314 312 315 320 320 317 318 320 318 316 320 323 323 324 326 328 322 312 308 310 314 317 321 323 323 324 325 324 324 326 325 324 323 322 321 320 319 320 319 313 308 306 307 310 312 311 309 309 306 303 308 316 318 308 301 304 310 308 300 293 278 256 240 230 235 248 257 256 252 245 238 235 234 234 236 231 221 217 224 229 230 233 240
319 317 313 313 317 321 320 316 317 319 319 319 321 323 324 325 325 325 319 312 310 313 315 318 321 323 324 325 326 325 324 324 324 326 327 324 323 324 323 323 322 318 313 315 319 319 318 318 320 323 322 318 318 322 321 313 306 310 317 317 310 300 278 240 227 222 225 236 245 247 248 247 243 237 232 230 227 219 213 219 228 231 230 231 235
318 315 313 314 318 321 319 316 317 320 320 319 320 322 324 323 322 322 318 313 313 315 317 320 323 325 327 327 325 324 324 323 323 325 324 323 326 328 326 324 323 319 309 306 308 310 312 314 314 315 314 312 312 316 320 320 316 312 313 313 308 302 291 249 226 229 235 239 241 241 241 243 245 240 231 231 229 214 208 222 230 227 225 224 221
316 313 312 314 318 321 319 316 318 321 320 317 318 322 324 320 319 320 317 314 316 319 320 322 326 329 330 328 326 326 326 324 323 324 324 324 326 327 326 324 323 319 307 294 291 299 308 311 309 308 306 304 306 311 314 316 317 311 301 295 297 302 303 285 236 227 235 242 244 245 242 239 244 243 234 231 233 222 212 219 224 220 219 219 214
315 312 312 315 319 321 319 318 321 323 317 315 318 323 321 316 316 317 316 316 320 322 322 324 327 328 329 329 328 328 326 325 326 327 327 326 324 324 325 325 324 323 316 301 293 300 307 304 300 304 305 295 286 289 299 305 307 298 286 292 304 307 308 308 281 237 230 234 240 248 247 239 238 242 236 230 232 230 222 221 220 216 215 216 213
Height
1511 1509 1508 1507 1505 1503 1500 1498 1496 1494 1492 1490 1488 1486 1485 1484 1483 1482 1481 1480 1478 1477 1477 1476 1476 1476 1477 1477 1477 1478 1479 1480 1481 1482 1483 1484 1486 1487 1488 1489 1491 1492 1493 1494 1495 1496 1497 1498 1499 1499 1500 1502 1502 1503 1503 1505 1507 1509 1511 1513 1515 1517 1519 1521 1522 1525 1527 1529 1531 1532 1534 1535 1536 1538 1539 1540 1542 1543 1544 1545 1546 1547 1548 1551 1552
1511 1510 1509 1508 1506 1504 1502 1499 1497 1495 1493 1492 1490 1489 1487 1485 1484 1483 1482 1480 1479 1478 1478 1478 1477 1476 1476 1475 1475 1476 1478 1479 1480 1481 1482 1483 1484 1485 1486 1487 1488 1489 1490 1491 1492 1494 1495 1495 1495 1496 1497 1499 1500 1501 1503 1503 1505 1506 1508 1510 1512 1514 1515 1517 1518 1520 1523 1525 1527 1529 1531 1533 1534 1535 1536 1537 1539 1540 1541 1543 1544 1544 1545 1547 1549
1512 1511 1511 1509 1508 1506 1503 1501 1499 1497 1496 1494 1492 1490 1488 1486 1485 1484 1483 1481 1481 1480 1479 1478 1478 1477 1476 1475 1474 1474 1475 1476 1477 1479 1480 1481 1482 1483 1484 1485 1486 1486 1487 1488 1489 1490 1492 1493 1493 1494 1495 1496 1497 1499 1500 1501 1502 1503 1504 1506 1508 1510 1512 1513 1514 1516 1518 1521 1525 1526 1527 1529 1531 1532 1532 1534 1536 1537 1539 1540 1541 1542 1543 1544 1545
1514 1513 1512 1511 1510 1507 1505 1503 1501 1499 1497 1495 1493 1491 1490 1488 1487 1486 1484 1483 1482 1480 1479 1478 1478 1478 1477 1475 1473 1473 1472 1472 1473 1475 1476 1477 1479 1480 1481 1482 1484 1484 1485 1486 1486 1488 1489 1490 1491 1492 1493 1494 1495 1495 1496 1497 1498 1500 1501 1502 1503 1506 1508 1509 1510 1512 1514 1516 1520 1523 1525 1528 1527 1525 1527 1531 1533 1534 1535 1536 1538 1539 1541 1541 1542
1516 1515 1514 1513 1511 1509 1508 1505 1503 1501 1499 1497 1495 1493 1492 1490 1489 1488 1486 1485 1483 1481 1479 1478 1477 1476 1475 1474 1473 1473 1472 1470 1470 1471 1473 1474 1475 1477 1478 1480 1481 1482 1483 1484 1484 1486 1486 1487 1489 1490 1491 1492 1493 1493 1493 1494 1495 1496 1497 1498 1499 1500 1503 1505 1506 1508 1509 1511 1513 1516 1520 1521 1519 1520 1525 1527 1528 1529 1531 1533 1534 1536 1537 1539 1540
1519 1518 1517 1515 1513 1512 1510 1508 1505 1503 1501 1500 1498 1497 1495 1492 1491 1489 1487 1486 1484 1482 1480 1478 1476 1474 1472 1472 1473 1473 1473 1472 1470 1469 1471 1472 1473 1474 1475 1477 1478 1480 1481 1482 1482 1483 1484 1485 1486 1487 1488 1489 1491 1492 1492 1493 1493 1494 1495 1495 1496 1497 1499 1501 1502 1504 1506 1508 1509 1510 1513 1513 1513 1518 1522 1523 1525 1527 1528 1529 1530 1532 1533 1535 1537
1520 1519 1518 1517 1515 1513 1512 1510 1508 1506 1504 1503 1501 1499 1497 1494 1492 1490 1488 1486 1485 1483 1481 1479 1476 1475 1474 1474 1475 1475 1475 1474 1471 1470 1470 1471 1471 1471 1472 1473 1475 1477 1478 1480 1481 1481 1482 1483 1484 1485 1485 1486 1488 1489 1490 1491 1492 1492 1493 1493 1493 1495 1496 1496 1498 1501 1502 1503 1505 1507 1510 1510 1512 1514 1515 1517 1520 1522 1523 1525 1526 1527 1529 1531 1532
1521 1520 1519 1518 1517 1515 1514 1512 1510 1508 1507 1505 1503 1501 1499 1497 1494 1492 1490 1488 1486 1484 1482 1481 1479 1477 1477 1476 1476 1475 1474 1473 1471 1470 1471 1471 1470 1470 1470 1470 1471 1472 1474 1476 1478 1479 1480 1481 1481 1482 1483 1484 1484 1485 1486 1488 1490 1491 1492 1492 1492 1492 1492 1493 1495 1496 1497 1498 1500 1503 1506 1507 1509 1510 1512 1514 1515 1516 1518 1520 1521 1523 1525 1526 1528
1523 1522 1520 1519 1518 1517 1515 1514 1512 1510 1508 1506 1504 1502 1500 1498 1496 1494 1491 1489 1487 1486 1484 1482 1481 1479 1478 1477 1476 1476 1475 1473 1472 1472 1472 1471 1470 1469 1468 1467 1468 1468 1469 1470 1472 1475 1477 1478 1478 1479 1479 1480 1481 1481 1483 1485 1486 1488 1489 1490 1490 1490 1489 1490 1491 1492 1493 1495 1497 1499 1501 1503 1505 1507 1509 1511 1512 1513 1514 1515 1517 1520 1520 1521 1523
1525 1523 1522 1520 1519 1518 1516 1514 1513 1511 1509 1507 1506 1504 1501 1499 1498 1495 1493 1490 1488 1487 1485 1483 1482 1480 1479 1477 1476 1475 1475 1474 1474 1473 1472 1470 1469 1468 1467 1466 1466 1465 1466 1467 1468 1469 1471 1473 1475 1475 1475 1476 1477 1478 1478 1480 1482 1483 1485 1487 1488 1488 1488 1488 1488 1489 1491 1493 1494 1495 1497 1498 1500 1502 1503 1505 1507 1508 1510 1511 1513 1514 1514 1516 1518
1526 1524 1523 1521 1520 1519 1517 1515 1513 1511 1509 1508 1506 1504 1502 1500 1498 1496 1494 1492 1490 1488 1486 1484 1482 1481 1479 1478 1476 1475 1473 1473 1472 1472 1470 1469 1468 1468 1467 1466 1465 1464 1464 1464 1465 1465 1466 1468 1470 1471 1472 1472 1473 1474 1474 1475 1476 1478 1480 1482 1484 1485 1486 1486 1486 1487 1489 1491 1492 1492 1493 1493 1494 1495 1496 1498 1501 1502 1504 1506 1508 1510 1511 1513 1515
1526 1524 1523 1521 1520 1518 1516 1515 1513 1511 1509 1507 1506 1504 1503 1502 1499 1497 1495 1493 1491 1489 1487 1485 1483 1481 1480 1479 1477 1475 1473 1471 1470 1469 1468 1468 1468 1468 1466 1464 1463 1463 1462 1462 1462 1462 1462 1463 1464 1466 1468 1469 1469 1469 1470 1472 1473 1473 1475 1476 1478 1480 1482 1484 1484 1484 1486 1488 1489 1489 1490 1491 1492 1492 1494 1496 1497 1499 1501 1503 1505 1507 1508 1510 1512
1526 1524 1523 1521 1520 1518 1516 1515 1513 1511 1509 1507 1506 1503 1502 1501 1499 1498 1497 1495 1492 1490 1488 1486 1484 1482 1480 1478 1477 1476 1474 1472 1470 1469 1468 1467 1466 1466 1464 1462 1462 1462 1462 1461 1460 1460 1460 1460 1460 1461 1462 1463 1464 1465 1466 1468 1469 1469 1470 1471 1472 1473 1476 1478 1479 1480 1482 1484 1485 1487 1488 1488 1489 1491 1493 1494 1496 1498 1499 1500 1503 1505 1506 1507 1509
1527 1525 1524 1521 1520 1518 1516 1514 1512 1511 1509 1507 1506 1504 1502 1500 1498 1497 1496 1495 1494 1491 1489 1486 1484 1482 1480 1478 1477 1476 1474 1473 1471 1470 1468 1467 1465 1464 1464 1463 1463 1462 1461 1459 1458 1458 1458 1458 1457 1457 1457 1457 1459 1461 1462 1463 1464 1465 1466 1467 1467 1468 1470 1472 1473 1475 1477 1479 1482 1483 1484 1485 1486 1489 1490 1491 1493 1494 1495 1497 1500 1503 1504 1505 1506
1527 1526 1524 1521 1520 1518 1515 1513 1511 1509 1508 1506 1505 1503 1502 1500 1497 1495 1494 1493 1492 1491 1489 1487 1485 1483 1481 1479 1477 1475 1474 1472 1472 1470 1469 1468 1466 1464 1463 1463 1462 1461 1460 1458 1457 1456 1456 1455 1455 1454 1453 1453 1454 1456 1457 1459 1460 1460 1461 1461 1462 1464 1465 1467 1468 1469 1471 1472 1475 1478 1479 1480 1482 1485 1486 1487 1489 1490 1492 1493 1496 1498 1499 1501 1502
1527 1525 1523 1521 1519 1517 1514 1512 1510 1508 1507 1505 1504 1502 1500 1499 1497 1495 1493 1491 1490 1488 1487 1486 1484 1482 1481 1480 1478 1475 1473 1471 1470 1469 1468 1467 1466 1464 1463 1461 1460 1459 1458 1457 1456 1455 1454 1453 1452 1451 1451 1450 1450 1451 1452 1454 1454 1455 1456 1456 1457 1459 1460 1462 1463 1464 1465 1466 1469 1471 1474 1475 1477 1480 1482 1483 1485 1487 1488 1490 1491 1492 1494 1496 1498
1525 1524 1522 1520 1518 1515 1513 1511 1509 1508 1506 1504 1502 1500 1498 1497 1495 1493 1492 1490 1489 1487 1485 1483 1482 1480 1479 1478 1477 1475 1473 1471 1469 1467 1466 1465 1464 1463 1462 1460 1459 1457 1456 1455 1454 1453 1452 1450 1449 1448 1448 1448 1447 1448 1448 1449 1450 1450 1451 1451 1451 1453 1455 1456 1458 1459 1460 1461 1463 1465 1467 1469 1471 1474 1476 1478 1481 1483 1484 1485 1487 1488 1489 1491 1492
1524 1522 1520 1517 1515 1513 1511 1509 1508 1507 1505 1503 1501 1499 1497 1496 1494 1492 1490 1489 1487 1486 1484 1482 1480 1478 1477 1476 1475 1474 1472 1471 1469 1467 1464 1463 1461 1460 1460 1458 1457 1455 1453 1451 1450 1450 1449 1448 1446 1445 1444 1444 1444 1444 1443 1444 1445 1445 1446 1446 1447 1449 1450 1450 1452 1453 1455 1457 1458 1460 1462 1463 1466 1468 1470 1473 1476 1478 1480 1481 1482 1484 1486 1486 1486
1522 1520 1518 1515 1513 1511 1509 1507 1506 1505 1504 1502 1500 1498 1497 1495 1493 1491 1489 1487 1486 1484 1483 1481 1479 1477 1475 1474 1473 1471 1470 1469 1468 1466 1464 1462 1459 1457 1456 1455 1454 1453 1451 1449 1447 1446 1445 1444 1443 1442 1441 1440 1440 1440 1439 1439 1440 1441 1441 1441 1442 1444 1445 1445 1447 1448 1450 1452 1453 1455 1456 1457 1460 1462 1464 1467 1469 1472 1475 1476 1478 1479 1481 1481 1482
1520 1517 1515 1513 1511 1510 1508 1506 1504 1503 1502 1500 1499 1498 1496 1495 1493 1490 1488 1486 1484 1483 1481 1480 1478 1476 1474 1472 1470 1469 1467 1466 1465 1464 1463 1461 1459 1457 1454 1452 1451 1449 1448 1447 1445 1443 1441 1441 1440 1439 1438 1437 1436 1436 1436 1436 1436 1436 1437 1437 1438 1439 1440 1441 1442 1444 1446 1447 1448 1449 1450 1452 1454 1456 1458 1460 1463 1466 1469 1471 1473 1474 1475 1477 1479
1518 1516 1514 1511 1509 1508 1506 1504 1502 1501 1500 1498 1497 1496 1495 1493 1491 1489 1486 1484 1482 1481 1480 1478 1476 1475 1473 1471 1469 1467 1465 1464 1462 1461 1459 1458 1458 1456 1454 1451 1448 1447 1445 1444 1443 1441 1439 1437 1436 1436 1435 1434 1433 1432 1432 1433 1432 1432 1432 1433 1434 1435 1436 1437 1438 1439 1441 1442 1443 1444 1445 1447 1449 1451 1452 1454 1457 1459 1463 1466 1468 1468 1469 1471 1473
1515 1513 1511 1508 1507 1505 1503 1502 1500 1499 1498 1497 1496 1494 1492 1490 1488 1486 1484 1482 1480 1479 1477 1475 1474 1472 1470 1469 1467 1465 1463 1461 1460 1458 1457 1455 1454 1453 1452 1450 1447 1445 1442 1440 1439 1438 1437 1435 1432 1431 1431 1430 1429 1428 1428 1428 1428 1428 1428 1428 1429 1431 1431 1432 1433 1434 1436 1437 1438 1439 1440 1442 1444 1446 1447 1449 1451 1453 1456 1459 1461 1462 1462 1464 1467
1513 1510 1508 1506 1504 1502 1501 1500 1499 1498 1496 1495 1493 1492 1490 1488 1486 1484 1482 1480 1478 1476 1474 1473 1471 1469 1467 1466 1464 1462 1461 1459 1457 1455 1454 1452 1450 1449 1448 1447 1445 1443 1440 1438 1436 1434 1434 1432 1430 1427 1426 1425 1425 1424 1424 1424 1424 1424 1424 1424 1425 1426 1427 1427 1428 1429 1431 1432 1434 1434 1435 1436 1439 1441 1442 1444 1446 1448 1450 1452 1454 1456 1457 1458 1461
1511 1508 1506 1504 1502 1500 1499 1497 1496 1495 1493 1491 1490 1488 1486 1484 1482 1480 1479 1477 1475 1473 1472 1470 1468 1466 1464 1462 1460 1459 1457 1455 1454 1452 1450 1448 1447 1446 1444 1443 1441 1440 1438 1436 1433 1431 1429 1428 1427 1425 1422 1421 1420 1420 1420 1419 1419 1419 1419 1419 1420 1421 1422 1422 1423 1424 1425 1427 1429 1429 1430 1431 1433 1435 1437 1439 1441 1443 1445 1446 1448 1451 1452 1454 1456
1509 1506 1504 1502 1500 1498 1496 1495 1493 1491 1490 1488 1486 1484 1482 1480 1478 1477 1475 1474 1472 1470 1468 1466 1464 1462 1460 1458 1456 1455 1453 1451 1450 1448 1447 1445 1443 1442 1441 1439 1437 1436 1434 1432 1430 1428 1426 1423 1422 1421 1419 1417 1416 1415 1415 1414 1414 1415 1415 1415 1415 1416 1417 1417 1418 1418 1420 1421 1423 1424 1425 1427 1428 1429 1431 1433 1435 1436 1438 1440 1442 1445 1447 1449 1451
1507 1505 1502 1500 1498 1496 1494 1492 1491 1489 1487 1485 1482 1481 1479 1477 1475 1473 1471 1470 1468 1466 1465 1463 1461 1459 1456 1455 1453 1451 1449 1447 1446 1444 1443 1441 1439 1438 1436 1435 1433 1431 1429 1428 1426 1425 1422 1419 1417 1416 1416 1414 1412 1411 1410 1409 1409 1410 1410 1410 1410 1411 1411 1412 1413 1413 1414 1416 1417 1418 1420 1421 1423 1424 1425 1427 1429 1431 1433 1434 1436 1438 1441 1444 1446
1506 1503 1500 1498 1496 1494 1492 1490 1488 1486 1484 1482 1479 1477 1475 1473 1471 1470 1468 1466 1465 1463 1461 1459 1457 1455 1453 1451 1449 1447 1445 1443 1441 1440 1438 1437 1435 1433 1431 1430 1429 1427 1424 1423 1421 1420 1418 1416 1413 1411 1410 1410 1409 1407 1405 1405 1405 1405 1405 1405 1405 1406 1406 1407 1407 1408 1409 1410 1411 1413 1414 1415 1417 1418 1420 1422 1424 1425 1427 1429 1431 1433 1436 1439 1441
1503 1501 1499 1497 1494 1492 1490 1488 1486 1483 1481 1478 1476 1474 1472 1470 1468 1466 1464 1463 1461 1459 1457 1455 1453 1451 1449 1447 1445 1443 1441 1439 1437 1435 1433 1431 1430 1428 1426 1424 1422 1421 1419 1417 1416 1414 1413 1411 1409 1407 1405 1405 1404 1402 1401 1400 1400 1400 1400 1400 1400 1401 1401 1402 1402 1403 1404 1405 1406 1407 1408 1410 1412 1413 1415 1416 1418 1420 1422 1423 1425 1428 1431 1433 1435
1501 1499 1497 1495 1492 1490 1488 1485 1483 1480 1478 1475 1473 1471 1469 1467 1465 1463 1461 1459 1457 1455 1453 1451 1449 1447 1445 1443 1440 1438 1436 1434 1432 1429 1427 1426 1424 1422 1420 1418 1416 1414 1413 1412 1411 1409 1407 1405 1404 1402 1400 1399 1398 1397 1397 1396 1395 1395 1395 1395 1396 1396 1396 1397 1397 1398 1399 1400 1401 1402 1403 1404 1406 1408 1410 1412 1413 1415 1417 1418 1419 1422 1425 1427 1429
1500 1498 1495 1493 1490 1488 1485 1483 1480 1477 1475 1473 1471 1469 1466 1464 1462 1460 1458 1456 1454 1451 1449 1447 1445 1442 1440 1437 1435 1432 1430 1428 1426 1424 1422 1420 1418 1416 1414 1412 1411 1409 1407 1406 1406 1405 1403 1400 1398 1397 1395 1393 1392 1392 1392 1391 1391 1390 1390 1390 1390 1390 1391 1391 1392 1392 1393 1395 1396 1397 1398 1400 1401 1403 1405 1406 1408 1410 1411 1413 1415 1416 1419 1421 1423
1498 1495 1492 1490 1488 1485 1483 1480 1477 1475 1473 1470 1468 1466 1463 1461 1459 1456 1454 1451 1449 1447 1444 1442 1440 1437 1435 1432 1429 1427 1424 1422 1420 1418 1416 1414 1411 1409 1407 1406 1405 1403 1402 1401 1400 1399 1398 1396 1394 1391 1389 1388 1387 1386 1386 1387 1386 1386 1386 1386 1385 1385 1385 1386 1386 1387 1388 1389 1391 1392 1394 1395 1397 1398 1399 1401 1402 1404 1406 1408 1410 1412 1413 1415 1417
1495 1492 1490 1488 1485 1483 1480 1477 1474 1472 1470 1468 1465 1462 1460 1458 1455 1452 1450 1447 1445 1442 1440 1437 1435 1433 1430 1428 1425 1422 1419 1417 1415 1413 1410 1408 1405 1403 1402 1401 1399 1397 1397 1396 1395 1394 1393 1391 1389 1386 1384 1382 1381 1381 1381 1381 1381 1382 1382 1382 1381 1380 1380 1380 1381 1382 1383 1384 1385 1387 1389 1390 1392 1393 1394 1396 1397 1399 1400 1402 1404 1406 1408 1410 1411
1492 1490 1488 1486 1484 1481 1478 1475 1472 1469 1467 1465 1462 1459 1456 1454 1451 1448 1446 1443 1441 1438 1435 1432 1430 1428 1425 1423 1420 1417 1415 1412 1410 1408 1405 1403 1400 1399 1397 1396 1394 1393 1392 1391 1390 1389 1387 1386 1384 1381 1379 1377 1376 1376 1376 1376 1377 1377 1377 1377 1376 1376 1375 1375 1375 1376 1377 1379 1380 1381 1383 1385 1387 1388 1390 1391 1392 1393 1395 1397 1399 1401 1403 1404 1406
1491 1489 1487 1484 1481 1478 1475 1472 1469 1467 1464 1461 1459 1456 1453 1450 1447 1444 1442 1439 1436 1434 1431 1428 1425 1423 1421 1418 1416 1413 1410 1408 1406 1404 1401 1399 1397 1395 1393 1392 1390 1389 1387 1386 1385 1383 1381 1380 1378 1376 1374 1372 1371 1371 1371 1372 1372 1372 1373 1372 1372 1371 1370 1370 1370 1371 1372 1373 1375 1376 1377 1379 1381 1383 1384 1386 1387 1389 1390 1392 1393 1395 1397 1399 1400
1489 1487 1484 1481 1478 1475 1472 1469 1466 1464 1460 1457 1455 1452 1449 1446 1444 1441 1438 1436 1433 1430 1427 1424 1421 1418 1416 1413 1411 1409 1406 1404 1402 1400 1397 1395 1393 1391 1389 1388 1386 1384 1382 1380 1379 1378 1376 1375 1373 1371 1369 1367 1367 1367 1367 1368 1369 1369 1369 1368 1368 1367 1366 1366 1366 1367 1367 1368 1370 1371 1372 1373 1375 1377 1379 1381 1382 1384 1386 1387 1388 1390 1391 1393 1394
1487 1484 1481 1478 1475 1472 1469 1465 1462 1459 1456 1454 1451 1448 1445 1442 1439 1437 1434 1431 1429 1426 1423 1420 1417 1414 1411 1410 1407 1405 1402 1400 1398 1396 1394 1391 1389 1387 1386 1384 1382 1379 1378 1376 1374 1373 1372 1370 1368 1367 1365 1363 1363 1363 1364 1365 1366 1366 1365 1364 1363 1362 1362 1362 1362 1362 1363 1364 1365 1366 1367 1368 1369 1371 1373 1375 1377 1379 1380 1382 1383 1384 1386 1387 1388
1484 1481 1478 1475 1472 1469 1466 1462 1459 1456 1453 1450 1447 1444 1441 1438 1435 1432 1429 1427 1424 1421 1419 1416 1413 1411 1409 1406 1404 1401 1399 1397 1395 1392 1390 1388 1386 1383 1382 1380 1377 1375 1373 1371 1370 1368 1367 1365 1364 1362 1361 1360 1359 1360 1361 1361 1362 1362 1361 1360 1359 1358 1357 1357 1357 1358 1359 1359 1360 1361 1362 1362 1364 1365 1367 1370 1372 1374 1375 1376 1377 1378 1380 1382 1383
1481 1478 1474 1472 1469 1465 1463 1459 1455 1453 1450 1447 1444 1441 1437 1433 1430 1428 1425 1422 1420 1417 1415 1412 1410 1408 1406 1403 1400 1398 1396 1393 1391 1389 1386 1384 1382 1379 1377 1375 1373 1370 1368 1367 1365 1363 1362 1361 1360 1358 1358 1357 1356 1356 1356 1356 1356 1356 1356 1356 1354 1354 1353 1353 1353 1353 1354 1355 1356 1357 1358 1358 1359 1360 1362 1365 1367 1369 1370 1371 1372 1373 1375 1376 1378
1478 1475 1471 1468 1464 1461 1459 1456 1452 1449 1446 1444 1440 1437 1433 1429 1426 1424 1421 1419 1416 1413 1411 1409 1407 1405 1403 1400 1398 1395 1392 1390 1387 1384 1382 1379 1377 1374 1372 1370 1368 1365 1363 1362 1361 1359 1357 1357 1356 1355 1354 1354 1353 1352 1352 1351 1351 1352 1352 1351 1350 1349 1349 1349 1349 1350 1350 1350 1351 1352 1353 1354 1355 1356 1358 1360 1362 1364 1365 1365 1367 1368 1369 1370 1372
1472 1470 1467 1464 1461 1458 1454 1451 1449 1446 1443 1439 1436 1432 1429 1426 1423 1421 1418 1415 1413 1410 1408 1406 1404 1402 1400 1397 1395 1392 1389 1386 1382 1379 1377 1375 1372 1370 1367 1365 1363 1361 1359 1358 1357 1355 1354 1353 1352 1352 1351 1350 1350 1349 1348 1348 1348 1348 1348 1347 1347 1346 1346 1346 1346 1346 1346 1346 1347 1348 1349 1351 1352 1353 1354 1356 1357 1359 1360 1360 1362 1363 1363 1364 1367
1468 1466 1463 1460 1457 1454 1451 1448 1445 1441 1438 1435 1432 1428 1426 1423 1420 1417 1414 1412 1410 1408 1406 1403 1401 1399 1397 1394 1391 1388 1385 1382 1379 1376 1373 1371 1369 1366 1364 1362 1359 1358 1356 1354 1353 1352 1351 1350 1350 1349 1348 1348 1347 1347 1346 1345 1345 1345 1345 1344 1343 1343 1343 1343 1343 1343 1343 1343 1344 1345 1346 1347 1348 1349 1350 1351 1353 1354 1355 1356 1357 1357 1358 1360 1363
1465 1462 1459 1456 1453 1450 1447 1444 1441 1438 1434 1431 1428 1425 1422 1419 1416 1413 1411 1409 1407 1405 1403 1401 1398 1396 1393 1391 1388 1385 1381 1378 1375 1373 1370 1367 1365 1364 1361 1359 1357 1355 1353 1352 1351 1350 1348 1347 1347 1346 1346 1346 1345 1345 1344 1343 1343 1342 1341 1341 1340 1340 1340 1341 1340 1340 1340 1340 1341 1342 1343 1344 1345 1346 1346 1347 1348 1350 1351 1351 1352 1353 1355 1357 1358
1461 1458 1456 1453 1449 1446 1443 1440 1437 1434 1430 1428 1425 1422 1419 1416 1413 1410 1408 1406 1404 1402 1400 1398 1395 1392 1390 1387 1384 1381 1378 1375 1372 1370 1367 1364 1362 1361 1359 1357 1355 1353 1351 1350 1348 1347 1346 1345 1345 1344 1344 1344 1343 1342 1341 1340 1339 1338 1338 1337 1337 1337 1338 1338 1338 1337 1337 1337 1338 1339 1340 1341 1341 1342 1343 1343 1344 1346 1347 1347 1348 1349 1351 1353 1354
1458 1455 1452 1449 1446 1442 1439 1436 1433 1430 1427 1425 1422 1418 1415 1412 1409 1407 1405 1403 1402 1400 1397 1394 1392 1389 1386 1383 1380 1378 1375 1372 1370 1367 1365 1362 1360 1358 1356 1354 1353 1351 1350 1348 1347 1346 1345 1344 1343 1342 1342 1342 1341 1340 1339 1338 1336 1335 1335 1334 1334 1334 1334 1334 1334 1334 1334 1335 1335 1336 1337 1338 1338 1339 1339 1340 1341 1342 1343 1344 1345 1346 1348 1349 1350
1454 1451 1448 1446 1442 1439 1435 1432 1428 1426 1424 1422 1419 1415 1412 1409 1407 1405 1403 1401 1399 1396 1394 1391 1388 1385 1382 1379 1377 1374 1372 1370 1367 1365 1362 1360 1358 1356 1354 1352 1351 1350 1348 1347 1346 1345 1344 1342 1341 1340 1340 1339 1339 1338 1337 1336 1334 1333 1332 1332 1331 1331 1331 1331 1331 1332 1332 1333 1333 1334 1335 1335 1336 1336 1337 1338 1338 1339 1340 1341 1342 1343 1344 1345 1346
1450 1447 1445 1442 1438 1435 1432 1428 1425 1423 1421 1418 1416 1413 1409 1406 1404 1402 1400 1398 1396 1393 1390 1388 1385 1382 1379 1376 1373 1371 1369 1366 1365 1363 1360 1358 1356 1354 1352 1350 1349 1348 1347 1346 1344 1343 1342 1341 1339 1339 1338 1337 1337 1336 1335 1334 1333 1332 1331 1331 1330 1330 1329 1329 1330 1330 1331 1332 1332 1332 1333 1333 1334 1334 1335 1335 1336 1337 1337 1338 1339 1341 1342 1342 1344
1446 1443 1441 1438 1434 1431 1428 1424 1421 1419 1417 1414 1412 1409 1406 1404 1401 1400 1398 1395 1393 1390 1387 1384 1381 1378 1375 1373 1370 1368 1365 1364 1362 1360 1358 1356 1354 1352 1350 1348 1347 1346 1345 1344 1343 1342 1341 1339 1338 1337 1336 1336 1335 1334 1334 1333 1332 1331 1330 1329 1329 1329 1328 1328 1329 1329 1329 1330 1330 1331 1331 1332 1332 1332 1333 1333 1334 1334 1335 1336 1337 1338 1339 1341 1343
1442 1440 1437 1434 1431 1427 1424 1421 1418 1415 1413 1411 1408 1406 1403 1401 1399 1397 1395 1392 1390 1387 1384 1381 1378 1375 1372 1370 1367 1365 1363 1361 1359 1357 1356 1354 1352 1350 1348 1347 1345 1344 1342 1341 1341 1340 1339 1338 1337 1336 1335 1334 1334 1333 1332 1331 1330 1330 1329 1328 1327 1327 1327 1327 1327 1328 1328 1328 1329 1329 1329 1330 1330 1331 1331 1331 1332 1333 1334 1334 1335 1336 1338 1340 1342
1438 1436 1433 1430 1427 1424 1420 1418 1415 1412 1410 1408 1405 1403 1400 1398 1396 1394 1392 1389 1387 1384 1381 1378 1375 1372 1369 1367 1365 1362 1360 1358 1356 1355 1353 1351 1350 1348 1346 1345 1343 1342 1341 1340 1339 1338 1337 1336 1335 1335 1334 1333 1332 1331 1331 1330 1329 1329 1328 1327 1326 1325 1325 1326 1326 1326 1326 1326 1327 1327 1328 1328 1329 1329 1330 1330 1331 1332 1333 1333 1334 1336 1337 1339 1340
1435 1432 1429 1427 1424 1420 1417 1414 1411 1409 1407 1405 1402 1400 1397 1396 1394 1391 1389 1387 1384 1381 1378 1375 1372 1370 1367 1364 1362 1360 1358 1356 1354 1352 1350 1348 1347 1346 1345 1343 1341 1340 1339 1338 1337 1336 1336 1335 1334 1333 1332 1331 1330 1330 1329 1329 1328 1328 1327 1327 1325 1324 1324 1324 1325 1325 1325 1325 1325 1325 1326 1327 1327 1328 1328 1329 1329 1330 1331 1332 1333 1335 1336 1338 1339
1431 1428 1425 1422 1419 1416 1413 1410 1407 1406 1404 1402 1399 1397 1395 1393 1391 1389 1386 1384 1381 1378 1375 1372 1369 1367 1365 1362 1360 1358 1356 1354 1352 1350 1348 1345 1344 1343 1342 1342 1340 1338 1337 1336 1335 1335 1334 1333 1332 1331 1330 1329 1328 1327 1327 1327 1327 1326 1325 1325 1325 1324 1323 1323 1323 1323 1323 1323 1324 1324 1324 1325 1326 1326 1327 1328 1329 1329 1330 1331 1332 1333 1335 1337 1338